Home   Weather   Onex   Past weeks

Flag for Switzerland Past Weather in Onex, Geneva, Switzerland — Yesterday and Last 2 Weeks

Now
66 °F

Passing clouds.


Feels Like: 66 °F
Forecast: 49 / 60 °F
Wind: 10 mph from Southwest

Location: Geneva Cointrin Airport

Current Time: Apr 24, 2017 at 9:27:40 pm

Latest Report: Apr 24, 2017 at 8:50 pm


Visibility: N/A

Pressure: 29.86 "Hg

Humidity: 35%

Dew Point: 37 °F

Location of OnexLocation

Past Weather in Onex — Graph

°F

Onex Temperature Yesterday

Maximum temperature yesterday: 63 °F (at 3:50 pm)
Minimum temperature yesterday: 37 °F (at 5:50 am)
Average temperature yesterday: 52 °F

High & Low Weather Summary for the Past Weeks

 TemperatureHumidityPressure
High75 °F (Apr 10, 2:50 pm)93% (Apr 14, 7:20 am)30.45 "Hg (Apr 14, 7:20 am)
Low32 °F (Apr 22, 5:20 am)14% (Apr 21, 6:50 pm)29.86 "Hg (Apr 24, 7:20 pm)
Average51 °F55%30.16 "Hg
* Reported Apr 9 7:20 pm — Apr 24 7:50 pm, Onex, Weather by CustomWeather, © 2017

Note: Actual official high and low records may vary slightly from our data, if they occured in-between our weather recording intervals... More about our weather records

Advertising

Onex Weather History for the Previous 24 Hours

Scroll right to see more
 ConditionsComfort  
Time TempWeatherWind HumidityBarometerVisibility
7:50 pm
Mon, Apr 24
70 °FPartly sunny.12 mph29%29.86 "HgN/A
7:20 pm72 °FPartly sunny.16 mph25%29.86 "HgN/A
6:50 pm72 °FScattered clouds.18 mph23%29.89 "HgN/A
6:20 pm72 °FPartly sunny.20 mph25%29.89 "HgN/A
5:50 pm72 °FScattered clouds.17 mph25%29.89 "HgN/A
5:20 pm72 °FScattered clouds.18 mph25%29.89 "HgN/A
4:50 pm72 °FScattered clouds.18 mph25%29.92 "HgN/A
4:20 pm72 °FPassing clouds.18 mph23%29.92 "HgN/A
3:50 pm72 °FScattered clouds.15 mph27%29.95 "HgN/A
3:20 pm70 °FPartly sunny.18 mph33%29.95 "HgN/A
2:50 pm70 °FPartly sunny.14 mph33%29.95 "HgN/A
2:20 pm68 °FPartly sunny.8 mph35%29.98 "HgN/A
1:50 pm66 °FPartly sunny.8 mph35%29.98 "HgN/A
1:20 pm64 °FPassing clouds.9 mph40%30.01 "HgN/A
12:50 pm61 °FPassing clouds.8 mph42%30.04 "HgN/A
12:20 pm59 °FPassing clouds.6 mph42%30.04 "HgN/A
11:50 am57 °FPassing clouds.5 mph41%30.07 "HgN/A
11:20 am55 °FSunny.2 mph44%30.07 "Hg10 mi
10:50 am54 °FSunny.3 mph47%30.07 "Hg10 mi
10:20 am50 °FPassing clouds.3 mph54%30.07 "HgN/A
9:50 am50 °FPassing clouds.5 mph54%30.09 "HgN/A
9:20 am48 °FPassing clouds.5 mph58%30.09 "HgN/A
8:50 am48 °FPassing clouds.6 mph58%30.09 "HgN/A
8:20 am46 °FSunny.1 mph62%30.09 "Hg10 mi
7:50 am41 °FSunny.1 mph76%30.09 "Hg10 mi
7:20 am37 °FSunny.1 mph81%30.09 "Hg10 mi
6:50 am36 °FSunny.1 mph87%30.09 "Hg10 mi
6:20 am36 °FClear.1 mph87%30.09 "Hg10 mi
5:50 am36 °FChilly.1 mph87%30.09 "HgN/A
5:20 am37 °FChilly.1 mph81%30.09 "HgN/A
4:50 am37 °FChilly.2 mph81%30.09 "HgN/A
4:20 am37 °FChilly.1 mph81%30.09 "HgN/A
3:50 am39 °FChilly.1 mph75%30.09 "HgN/A
3:20 am39 °FChilly.1 mph75%30.09 "HgN/A
2:50 am41 °FQuite cool.2 mph70%30.09 "HgN/A
2:20 am43 °FQuite cool.2 mph66%30.09 "HgN/A
1:50 am43 °FQuite cool.1 mph66%30.09 "HgN/A
1:20 am45 °FQuite cool.2 mph57%30.09 "HgN/A
12:50 am46 °FCool.1 mph57%30.12 "HgN/A
12:20 am50 °FCool.5 mph47%30.09 "HgN/A
11:50 pm
Sun, Apr 23
52 °FCool.8 mph47%30.09 "HgN/A
11:20 pm54 °FCool.8 mph44%30.09 "HgN/A
10:50 pm54 °FClear.8 mph44%30.09 "Hg10 mi
10:20 pm54 °FClear.8 mph47%30.09 "Hg10 mi
9:50 pm54 °FClear.6 mph47%30.09 "Hg10 mi
9:20 pm54 °FClear.5 mph51%30.09 "Hg10 mi
Weather by CustomWeather, © 2017

See weather overviewHow to use our weather pages